Temp
12 9 10 10 10 10 9 9 8 10 9 6 5 4 3 3 3 2 1 0 0 1 1 5 7 7 8 8 10 10 11 10 10 10 10 11 10 10 10 10 10 9 9 9
9 10 12 11 11 10 10 11 10 9 10 6 5 4 3 3 3 2 1 -1 -1 1 2 2 4 6 7 7 8 9 10 9 9 9 10 10 10 9 9 9 8 8 8 8
10 12 12 12 10 10 9 9 9 9 9 6 4 5 5 4 4 3 2 1 -1 -1 -1 0 2 3 6 7 7 8 8 8 8 8 9 9 9 9 8 8 8 8 8 8
12 12 12 12 11 10 10 9 10 9 9 8 7 6 6 4 2 2 2 1 -0 -1 1 -0 0 4 4 5 5 7 7 8 8 8 8 8 8 8 8 8 7 7 7 8
12 12 11 11 12 10 10 9 9 9 8 8 9 6 6 4 3 1 1 1 0 -1 -1 -1 0 -0 1 4 5 6 7 7 7 7 6 7 7 6 7 6 7 7 7 7
11 11 11 11 10 10 10 10 9 7 7 6 9 7 6 3 3 2 1 1 1 0 1 1 -1 1 4 3 5 5 6 7 7 7 6 6 7 6 6 6 6 6 6 6
8 11 11 11 10 10 8 8 7 8 7 7 7 6 5 3 2 2 1 1 0 0 0 1 2 3 3 3 3 4 4 5 5 5 6 6 6 6 6 6 6 6 6 6
7 7 11 10 10 10 9 8 6 9 8 8 8 7 5 3 2 2 1 1 0 0 0 -0 -0 1 2 3 3 4 4 5 5 5 5 5 5 5 5 5 5 5 5 5
7 9 10 10 10 9 9 8 9 8 7 6 6 4 4 2 2 1 1 0 -0 -1 -0 -0 0 0 1 2 3 3 3 4 4 3 4 4 4 5 5 5 5 5 5 5
9 7 9 10 10 10 10 9 8 6 8 8 7 5 5 2 2 1 0 -0 -1 -1 -1 -1 0 1 1 1 3 3 3 3 3 3 4 4 4 4 4 4 4 5 5 5
9 7 8 9 9 9 9 8 9 8 7 8 7 8 5 4 2 1 0 -0 -1 -1 -2 -1 -1 -1 -0 1 1 1 3 3 4 3 3 3 3 3 4 4 3 4 4 4
9 6 5 8 9 9 9 9 8 7 8 6 6 7 4 3 2 1 -0 -1 -1 -1 -1 -2 -1 -1 -0 -1 -1 0 0 1 1 2 2 2 2 3 3 3 3 3 3 3
9 6 5 7 8 9 9 9 9 7 5 6 6 7 2 2 1 1 -0 -1 -2 -2 -2 -2 -2 -2 -2 -1 -0 -0 -0 -1 -1 -1 -0 0 1 1 1 1 1 1 2 2
9 6 7 6 7 7 7 8 8 7 5 7 6 5 1 1 0 -1 -1 -1 -2 -3 -3 -3 -3 -3 -3 -3 -3 -3 -3 -2 -2 -2 -2 -2 -1 -1 -1 -1 -1 -0 -0 0
6 5 4 5 6 6 6 7 7 6 7 7 8 5 4 2 0 -1 -1 -2 -3 -3 -4 -4 -4 -4 -4 -4 -4 -4 -4 -4 -4 -4 -3 -3 -3 -3 -3 -3 -2 -1 -1 -1
4 4 5 3 5 5 5 7 7 7 7 7 7 7 1 1 -0 -2 -2 -3 -4 -4 -5 -5 -5 -5 -6 -6 -5 -5 -5 -5 -5 -5 -5 -5 -5 -4 -4 -4 -3 -3 -3 -2
4 4 4 5 4 4 5 6 6 6 6 6 5 6 -1 -1 -1 -3 -3 -3 -4 -4 -4 -5 -5 -4 -4 -4 -4 -4 -4 -4 -4 -4 -4 -5 -5 -5 -5 -5 -5 -5 -4 -4
4 4 4 3 3 4 6 3 3 4 3 2 1 1 -0 -2 -3 -3 -3 -4 -4 -5 -5 -5 -5 -5 -5 -5 -5 -5 -4 -4 -5 -5 -4 -4 -4 -4 -5 -5 -5 -6 -6 -6
4 5 3 4 3 4 5 2 3 3 2 0 -0 -2 -3 -4 -4 -6 -5 -5 -5 -5 -6 -6 -6 -6 -7 -7 -6 -6 -6 -6 -6 -6 -6 -6 -7 -6 -6 -6 -6 -6 -6 -6
2 3 5 3 4 4 4 -0 0 1 2 -1 -1 -2 -4 -4 -3 -5 -6 -6 -6 -6 -6 -6 -7 -7 -7 -7 -7 -7 -7 -7 -7 -7 -7 -7 -7 -8 -7 -8 -7 -7 -7 -7
1 1 3 3 4 3 -0 -0 0 3 2 -3 -2 -3 -3 -4 -5 -6 -6 -6 -7 -7 -7 -8 -8 -8 -8 -8 -8 -8 -8 -8 -8 -8 -8 -8 -8 -8 -8 -8 -8 -8 -8 -8
2 2 1 3 3 4 -1 -1 1 -3 -4 -4 -4 -5 -5 -5 -6 -6 -7 -7 -8 -8 -8 -8 -8 -8 -8 -9 -8 -8 -9 -9 -9 -9 -9 -9 -9 -9 -9 -9 -9 -9 -9 -8
3 3 3 3 4 -3 -4 -4 -4 -4 -4 -5 -5 -6 -6 -7 -7 -7 -8 -8 -8 -9 -9 -9 -8 -8 -9 -9 -9 -9 -9 -9 -9 -9 -9 -10 -10 -10 -10 -10 -11 -10 -10 -10
1 1 2 1 -4 -5 -5 -5 -5 -5 -5 -6 -7 -7 -8 -7 -8 -8 -8 -9 -9 -9 -9 -9 -9 -9 -9 -10 -10 -10 -10 -10 -10 -10 -10 -10 -11 -11 -11 -11 -11 -11 -12 -12
-0 0 1 -2 -6 -6 -6 -6 -6 -6 -7 -7 -8 -8 -8 -8 -9 -9 -9 -9 -9 -9 -9 -10 -10 -10 -10 -10 -10 -10 -11 -11 -11 -11 -11 -11 -11 -11 -12 -12 -12 -13 -13 -13
-3 -1 0 1 -4 -5 -7 -7 -7 -7 -8 -9 -9 -9 -9 -9 -9 -9 -10 -10 -10 -10 -10 -10 -11 -11 -10 -11 -11 -11 -12 -12 -12 -12 -12 -12 -12 -12 -13 -13 -13 -13 -13 -14
Height
1536 1543 1548 1545 1544 1543 1543 1544 1545 1537 1537 1545 1551 1553 1551 1548 1542 1536 1532 1525 1518 1513 1508 1499 1493 1486 1483 1481 1482 1482 1484 1488 1492 1497 1490 1499 1496 1508 1512 1516 1519 1523 1527 1530
1543 1545 1540 1540 1541 1541 1539 1539 1540 1537 1536 1543 1552 1552 1551 1549 1545 1543 1537 1530 1523 1515 1507 1502 1496 1491 1486 1481 1482 1482 1486 1488 1492 1495 1496 1498 1496 1506 1513 1514 1516 1520 1524 1528
1545 1540 1537 1537 1541 1543 1543 1542 1540 1541 1536 1542 1550 1551 1548 1550 1548 1544 1540 1537 1530 1524 1516 1510 1500 1496 1491 1488 1483 1486 1487 1489 1493 1492 1493 1498 1503 1509 1510 1512 1514 1519 1523 1526
1540 1537 1537 1537 1538 1540 1544 1539 1539 1539 1540 1545 1542 1552 1548 1550 1551 1547 1544 1541 1535 1529 1520 1515 1509 1496 1497 1495 1487 1491 1492 1490 1492 1494 1500 1504 1509 1512 1511 1510 1515 1519 1523 1524
1540 1537 1537 1537 1536 1539 1538 1535 1537 1537 1540 1541 1538 1549 1546 1549 1551 1549 1547 1545 1540 1535 1529 1519 1515 1511 1505 1500 1495 1495 1496 1496 1499 1501 1505 1502 1510 1512 1512 1511 1514 1518 1522 1524
1539 1538 1538 1537 1536 1536 1534 1534 1536 1540 1543 1553 1533 1539 1545 1552 1551 1550 1549 1545 1542 1538 1533 1530 1525 1517 1511 1508 1502 1500 1499 1500 1503 1507 1506 1505 1508 1512 1512 1511 1511 1514 1521 1524
1544 1539 1537 1538 1538 1537 1537 1540 1547 1547 1552 1546 1537 1542 1542 1548 1550 1551 1551 1548 1545 1541 1537 1532 1526 1521 1520 1515 1513 1512 1511 1509 1510 1509 1507 1508 1508 1512 1515 1514 1517 1519 1522 1523
1559 1555 1539 1539 1539 1542 1542 1543 1553 1543 1545 1543 1538 1538 1544 1547 1549 1550 1549 1549 1547 1543 1540 1537 1533 1530 1525 1522 1522 1521 1517 1515 1512 1512 1512 1512 1515 1516 1514 1514 1514 1517 1519 1520
1558 1550 1540 1539 1538 1539 1540 1548 1543 1546 1546 1550 1547 1553 1549 1551 1551 1551 1551 1550 1549 1546 1543 1540 1537 1534 1531 1527 1525 1524 1524 1522 1520 1523 1519 1519 1518 1518 1517 1516 1515 1516 1514 1514
1552 1558 1542 1538 1538 1539 1538 1540 1546 1552 1542 1538 1541 1547 1539 1547 1549 1550 1551 1551 1550 1549 1545 1542 1539 1536 1535 1534 1532 1530 1526 1524 1524 1523 1522 1521 1520 1520 1518 1518 1516 1516 1514 1512
1550 1557 1548 1540 1539 1540 1542 1541 1541 1545 1548 1541 1541 1529 1532 1537 1543 1548 1550 1550 1550 1548 1546 1544 1542 1541 1539 1537 1535 1532 1531 1530 1528 1526 1525 1524 1521 1519 1518 1518 1516 1515 1512 1509
1548 1555 1561 1547 1539 1539 1538 1539 1541 1547 1545 1549 1549 1532 1531 1534 1540 1544 1547 1549 1549 1548 1547 1545 1543 1541 1539 1537 1535 1533 1531 1530 1527 1527 1524 1523 1521 1520 1518 1517 1515 1513 1510 1507
1551 1555 1561 1548 1542 1536 1536 1537 1537 1541 1546 1544 1549 1528 1536 1535 1540 1543 1544 1547 1548 1548 1547 1546 1544 1542 1540 1538 1535 1533 1532 1530 1528 1526 1525 1524 1521 1518 1517 1514 1513 1512 1507 1505
1547 1554 1552 1554 1542 1539 1540 1534 1534 1536 1544 1530 1532 1531 1539 1537 1537 1540 1543 1544 1546 1547 1547 1546 1544 1543 1541 1539 1536 1534 1531 1529 1526 1525 1523 1521 1520 1519 1515 1512 1511 1506 1505 1502
1549 1552 1551 1544 1540 1538 1533 1527 1525 1529 1521 1524 1513 1522 1521 1525 1529 1534 1538 1542 1545 1546 1546 1545 1544 1543 1541 1540 1538 1536 1534 1531 1529 1527 1524 1521 1517 1514 1511 1508 1508 1506 1502 1499
1547 1548 1544 1545 1537 1535 1531 1521 1514 1514 1514 1513 1511 1508 1517 1521 1527 1533 1537 1540 1542 1544 1544 1543 1542 1541 1539 1537 1535 1533 1531 1528 1525 1522 1518 1514 1512 1509 1507 1504 1502 1500 1497 1495
1547 1548 1549 1538 1537 1536 1523 1510 1508 1507 1510 1511 1513 1505 1517 1524 1529 1533 1536 1538 1540 1541 1541 1541 1539 1537 1536 1534 1532 1530 1527 1524 1522 1518 1515 1511 1507 1504 1502 1498 1496 1494 1493 1490
1544 1546 1549 1547 1541 1538 1509 1514 1513 1514 1517 1518 1516 1517 1520 1524 1529 1532 1535 1536 1538 1538 1538 1537 1536 1535 1534 1532 1530 1527 1524 1521 1518 1515 1512 1508 1505 1502 1498 1495 1492 1488 1485 1482
1535 1540 1547 1545 1540 1523 1509 1515 1514 1513 1515 1518 1521 1523 1524 1527 1531 1534 1535 1536 1536 1537 1536 1535 1534 1532 1530 1528 1526 1524 1521 1519 1516 1513 1509 1506 1502 1499 1496 1493 1490 1486 1481 1475
1535 1536 1538 1540 1533 1523 1508 1516 1516 1515 1514 1513 1515 1520 1524 1528 1531 1530 1532 1533 1533 1533 1533 1532 1531 1529 1527 1525 1522 1520 1517 1514 1511 1508 1505 1502 1499 1495 1491 1487 1483 1478 1473 1468
1541 1540 1534 1532 1527 1515 1513 1514 1516 1515 1510 1515 1516 1519 1522 1524 1526 1527 1530 1531 1532 1532 1531 1530 1529 1527 1524 1521 1519 1516 1513 1510 1507 1503 1500 1497 1493 1489 1485 1481 1476 1471 1466 1461
1529 1532 1534 1529 1525 1514 1510 1514 1514 1513 1513 1515 1518 1520 1522 1523 1525 1526 1527 1528 1529 1529 1528 1527 1525 1523 1520 1518 1515 1512 1510 1506 1502 1498 1495 1491 1488 1484 1479 1475 1470 1466 1461 1456
1519 1509 1512 1512 1501 1506 1508 1508 1509 1512 1512 1516 1518 1520 1522 1523 1524 1525 1525 1525 1525 1524 1523 1521 1520 1518 1516 1514 1510 1507 1504 1501 1496 1493 1489 1486 1482 1478 1474 1470 1465 1460 1456 1452
1505 1503 1502 1504 1503 1503 1506 1508 1509 1510 1513 1515 1517 1518 1521 1522 1522 1522 1522 1522 1521 1520 1518 1516 1514 1512 1510 1509 1506 1503 1499 1495 1490 1487 1483 1480 1475 1471 1468 1465 1461 1456 1452 1448
1499 1500 1499 1500 1503 1506 1507 1506 1507 1509 1512 1513 1515 1517 1518 1520 1520 1521 1521 1520 1518 1516 1514 1512 1509 1506 1504 1502 1499 1497 1493 1488 1484 1480 1477 1473 1469 1465 1461 1458 1455 1451 1448 1445
1492 1490 1493 1484 1491 1496 1498 1502 1506 1508 1511 1513 1515 1516 1516 1517 1517 1516 1516 1516 1514 1512 1510 1507 1504 1501 1498 1495 1492 1490 1485 1481 1477 1473 1470 1466 1462 1458 1455 1451 1447 1447 1442 1441
Wind_Speed
3 5 1 3 3 5 4 3 4 3 6 6 4 2 5 13 23 27 30 33 35 36 26 21 18 21 11 2 8 9 10 18 19 24 32 43 29 31 29 24 19 17 18 19
6 1 3 3 2 1 1 2 2 5 6 6 3 1 2 7 15 18 23 31 35 38 37 27 26 25 25 24 18 7 12 5 15 23 27 25 31 26 23 21 17 14 13 16
4 2 1 2 3 5 2 2 2 4 5 5 7 3 2 4 16 20 24 23 30 31 35 34 30 28 25 24 30 24 20 18 14 17 14 18 14 16 17 15 12 12 15 15
2 1 1 2 2 3 2 5 2 2 1 2 5 4 3 2 7 14 22 24 25 28 31 34 34 33 30 26 27 22 18 19 16 14 7 8 6 7 7 8 8 9 14 16
4 2 2 1 1 3 6 5 4 3 2 2 3 3 3 2 4 6 15 19 20 23 26 31 32 31 34 34 29 25 20 20 17 18 14 9 7 5 4 5 4 3 8 10
4 1 2 2 3 4 6 1 3 3 2 1 4 4 3 2 3 2 8 15 19 21 24 27 27 31 30 29 31 32 24 18 14 9 10 15 12 7 7 7 5 3 4 7
6 2 1 1 4 2 7 4 2 3 2 4 1 3 3 4 3 4 4 11 15 19 23 25 29 31 30 31 30 28 26 25 21 19 15 15 11 7 10 9 7 5 5 6
2 7 3 3 1 3 3 2 3 3 2 3 2 4 3 4 9 7 9 9 13 18 21 24 25 26 26 27 26 25 24 24 21 19 18 18 12 11 9 10 10 15 18 19
5 5 3 2 2 4 1 2 1 1 1 1 1 2 1 4 4 5 5 9 12 15 18 20 21 24 24 24 24 24 22 21 19 18 18 15 11 8 5 6 5 9 12 16
0 5 2 3 2 2 2 3 1 2 1 3 2 3 4 11 8 5 5 7 9 10 14 16 18 19 20 20 19 18 20 21 19 17 15 13 11 9 7 5 3 4 6 7
1 2 6 3 0 1 3 1 1 2 3 2 3 4 3 12 9 8 8 5 6 9 11 12 14 16 16 17 18 19 17 15 15 17 16 14 13 12 10 9 8 8 7 8
0 3 4 7 2 2 1 2 2 2 3 2 2 4 2 8 14 17 13 9 4 5 7 9 12 13 14 17 18 18 18 17 17 15 15 16 15 13 13 14 14 14 13 13
1 1 4 8 3 0 3 2 3 2 2 5 2 4 2 11 15 16 17 11 7 4 3 5 8 12 14 14 14 15 16 17 17 17 16 16 15 15 15 16 16 17 17 17
2 3 7 7 8 3 5 8 5 6 4 5 8 3 6 9 10 16 17 14 9 5 3 4 7 10 12 13 16 17 17 17 17 17 16 15 16 17 18 19 19 19 19 19
3 5 5 8 8 6 13 16 12 13 16 12 17 9 7 17 15 21 19 14 10 6 2 3 6 8 10 11 12 13 14 16 16 16 16 18 19 20 19 18 17 18 19 21
2 4 2 5 9 11 16 19 18 16 14 14 17 18 2 17 22 19 19 15 10 6 2 3 5 8 10 12 15 18 19 20 20 20 22 23 24 24 22 21 21 21 21 21
4 3 2 6 3 7 13 10 8 4 3 4 8 5 14 12 16 16 16 11 7 3 1 5 8 10 12 14 15 17 18 19 20 21 23 25 27 28 27 27 26 25 24 24
4 4 2 4 4 4 5 2 1 3 3 1 7 10 10 15 14 14 10 9 6 3 5 7 10 12 12 13 14 16 17 19 20 21 22 24 25 26 27 29 31 32 31 29
10 5 2 3 3 7 5 1 3 4 4 1 6 10 16 19 15 7 7 5 3 3 6 9 11 12 13 14 16 18 18 18 19 21 23 24 25 26 27 28 29 29 30 32
3 2 5 3 4 5 1 3 1 2 4 5 11 13 15 15 3 4 10 6 4 6 7 9 10 12 14 15 17 18 19 20 21 23 24 25 25 26 28 28 29 30 30 31
3 2 11 10 5 7 3 4 2 2 2 9 12 12 13 5 3 11 7 4 5 7 8 10 12 14 15 16 18 20 20 21 23 24 25 26 26 27 28 29 28 30 31 32
7 7 4 4 5 9 8 3 6 6 11 12 10 9 9 9 7 5 5 5 6 7 9 11 14 16 17 17 19 20 21 23 24 26 26 26 27 27 27 28 28 29 30 31
4 6 4 9 5 3 6 2 8 9 14 10 10 8 6 5 5 4 4 5 7 9 12 13 15 17 18 18 19 22 24 24 26 27 27 27 28 27 26 27 28 29 28 29
4 5 4 1 3 7 10 10 9 11 11 10 8 5 4 5 4 4 6 8 10 12 14 15 17 19 21 20 22 23 24 25 26 28 28 29 29 29 27 26 26 27 26 27
4 7 4 2 3 5 8 10 11 10 9 8 5 4 4 4 5 7 9 11 13 15 16 17 19 22 23 24 25 23 24 25 27 28 29 29 30 29 29 28 27 25 24 21
9 5 6 4 11 5 7 15 12 10 7 5 4 4 4 5 7 9 11 13 15 17 18 21 23 24 25 26 26 26 26 26 27 30 30 29 29 29 29 29 29 21 22 19
Wind_Direction
33 67 322 253 223 222 225 207 242 264 163 86 95 126 314 354 15 16 9 8 12 17 14 31 44 52 44 178 248 215 209 225 223 226 204 207 201 194 191 191 194 205 214 219
20 123 232 258 98 297 120 157 288 285 131 87 191 226 277 353 26 14 18 11 7 21 27 26 46 54 63 68 86 157 201 210 198 200 208 197 182 186 184 180 183 196 214 220
154 238 250 91 59 22 344 167 250 222 340 65 128 342 310 63 27 14 20 24 21 13 18 27 47 54 59 65 84 102 101 97 96 102 144 156 145 165 177 165 177 195 199 208
218 328 22 35 106 122 299 217 246 228 81 245 172 276 279 175 30 19 12 17 21 23 26 31 40 56 61 65 77 98 105 104 88 80 93 129 160 175 174 159 192 209 222 221
264 326 346 335 210 158 237 162 230 228 183 7 207 97 205 18 332 12 13 20 28 35 36 35 40 48 57 66 71 82 85 110 121 119 124 126 174 115 191 146 101 336 253 235
260 292 176 275 320 186 287 26 68 58 94 10 229 137 241 243 264 22 18 37 38 42 44 49 47 50 57 52 62 68 72 67 91 118 118 133 133 123 116 115 173 93 274 246
333 318 320 352 339 20 28 35 357 354 358 228 157 62 262 159 158 141 74 40 40 44 48 48 46 50 55 54 56 58 66 74 74 85 105 133 135 176 206 198 205 207 239 243
46 334 1 13 85 305 332 131 146 266 239 282 13 249 310 159 147 120 91 65 46 44 47 48 49 51 52 54 58 62 61 64 66 65 71 84 93 112 139 169 179 203 221 233
12 284 329 246 240 135 358 6 216 173 295 3 167 328 349 163 163 134 91 70 49 44 42 44 48 49 49 48 48 51 58 63 63 62 69 70 74 68 63 72 111 169 197 213
340 305 278 294 329 259 194 164 351 1 277 268 254 261 250 195 192 173 141 92 72 51 43 42 41 42 44 48 48 47 43 45 47 46 49 48 50 51 49 36 2 301 274 269
88 127 289 341 157 294 343 316 203 173 174 255 301 254 226 194 174 169 160 127 90 65 50 43 42 41 41 40 40 40 40 35 31 29 29 25 22 19 9 357 346 327 313 294
212 160 283 258 264 235 237 302 103 119 291 275 233 266 11 139 155 162 156 142 110 62 48 35 31 29 30 32 31 28 28 26 24 17 11 8 6 358 349 343 338 330 322 312
255 279 331 330 15 305 84 256 202 150 146 211 202 263 84 130 141 164 155 152 143 121 63 40 31 28 24 24 21 17 14 15 10 7 4 358 353 348 345 341 334 327 323 318
168 220 193 229 250 209 259 252 262 207 211 235 223 237 207 187 164 161 161 160 156 140 102 47 27 21 17 15 12 12 9 4 358 355 353 352 349 345 340 337 331 329 325 321
173 232 219 255 270 269 265 260 248 231 245 239 262 227 207 193 175 169 167 160 161 158 135 38 20 12 5 2 4 5 1 357 357 351 344 346 345 343 341 337 328 321 318 317
203 261 258 264 257 262 279 272 260 248 256 266 261 262 232 161 152 155 165 171 165 161 150 2 0 0 1 357 354 352 350 350 349 347 345 344 342 341 339 336 331 326 322 316
200 194 7 278 339 320 283 273 254 196 181 240 253 243 147 137 143 153 165 175 175 190 288 332 341 344 340 334 334 333 335 333 332 332 334 336 337 337 337 337 334 331 327 323
186 143 171 286 339 243 257 9 50 86 42 69 95 116 123 129 143 155 169 178 184 224 312 326 333 332 325 324 324 324 325 327 327 326 325 325 325 328 328 328 328 330 330 328
192 161 229 258 225 294 250 188 147 182 214 220 135 112 120 137 134 134 165 178 201 279 315 319 316 316 321 323 323 324 326 328 326 325 326 328 329 327 326 325 325 325 324 324
85 173 184 184 247 258 201 164 166 169 268 186 161 147 150 154 186 159 181 199 238 281 296 299 306 313 317 319 322 324 326 329 326 325 324 326 326 325 325 325 325 324 323 322
136 178 212 224 252 275 152 153 163 162 253 139 153 156 163 177 189 151 181 236 270 285 294 301 309 316 321 322 321 322 323 324 323 321 321 324 324 324 323 322 321 321 321 321
176 173 199 188 223 264 156 140 191 143 136 147 144 140 132 142 159 186 221 253 276 291 302 308 312 315 319 321 319 317 320 321 319 317 319 320 321 323 322 321 321 322 320 319
238 199 187 198 217 110 178 180 151 158 152 154 159 153 164 177 195 223 251 274 293 305 309 311 310 310 314 318 316 315 320 318 315 315 317 319 319 320 320 323 321 320 321 322
239 198 197 124 183 172 171 162 155 159 162 166 178 175 188 203 226 254 277 288 298 306 311 311 311 310 312 317 315 317 317 314 313 313 316 318 319 319 320 319 321 320 320 319
177 159 185 238 107 132 204 190 179 170 167 164 160 186 215 245 268 290 298 304 308 309 310 310 311 312 314 315 314 318 317 314 312 312 315 316 315 317 318 318 322 318 315 314
190 176 192 228 155 132 159 184 175 169 160 161 189 211 247 277 289 292 298 304 307 308 311 311 310 310 313 313 314 317 316 313 311 311 313 314 314 315 317 316 317 315 312 305